Regional Weather Roundup
Issued by NWS

Home | Current Version | Previous Version | Graphics & Text | Print | Product List | Glossary On
Versions: 1 2 3 4 5 6 7 8 9 10 11 12 13 14 15 16 17 18 19 20 21 22 23 24 25 26 27 28 29 30 31 32 33 34 35 36 37 38 39 40 41 42 43 44 45 46 47 48 49 50
000
ASUS44 KMEG 311110
RWRTN
TENNESSEE HOURLY STATE WEATHER ROUNDUP
NATIONAL WEATHER SERVICE MEMPHIS TN
600 AM CDT FRI OCT 31 2014

TNZ002-004-019-021-049-052-054-088>092-311200-
WEST TENNESSEE

CITY           SKY/WX    TMP DP  RH WIND       PRES   REMARKS
MEMPHIS INTL   CLEAR     51  47  86 NW6       30.00R
NWS MEMPHIS      N/A     46 N/A N/A MISG        N/A
JACKSON        FOG       45  45 100 CALM      30.00R VSB 1/2
DYERSBURG      MOCLDY    45  34  65 CALM      30.03R
UNION CITY     MOCLDY    48  45  87 CALM      30.01R
PARIS          CLOUDY    46  45  93 CALM      30.00S
HUNTINGDON     CLOUDY    49  45  86 E3        29.99S
LEXINGTON      CLOUDY    46  45  93 N3        29.98R
SAVANNAH       MOCLDY    45  45 100 CALM      29.98S
$$

TNZ008-025-027-028-033-062-065-066-311200-
NORTH MIDDLE TENNESSEE

CITY           SKY/WX    TMP DP  RH WIND       PRES   REMARKS
NASHVILLE      CLOUDY    51  43  74 CALM      29.99S
DICKSON        CLOUDY    48  45  87 CALM      29.99R
PORTLAND       CLOUDY    46  45  93 CALM      29.98S
CLARKSVILLE    LGT RAIN  50  47  89 NW6       30.00S
LEBANON        CLOUDY    47  44  89 CALM      29.98S
SMYRNA         CLOUDY    48  44  86 CALM      30.01R
MURFREESBORO   CLOUDY    49  42  76 NW3       29.99R
COOKEVILLE     MOCLDY    45  45 100 CALM      29.97S
LIVINGSTON     CLOUDY    44  41  89 CALM      29.97S
GALLATIN       CLOUDY    48  46  93 CALM      30.00S
CROSSVILLE     CLOUDY    44  39  82 CALM      29.97F
ROCKWOOD       CLOUDY    41  37  85 CALM      29.96S
$$

TNZ061-075-076-078-094-096-097-311200-
SOUTH MIDDLE TENNESSEE

CITY           SKY/WX    TMP DP  RH WIND       PRES   REMARKS
FAYETTEVILLE   CLEAR     41  39  93 W17G58    29.99R
TULLAHOMA      CLEAR     45  39  81 W3        29.99R
WINCHESTER     CLOUDY    45  43  93 CALM      29.99R
MCMINNVILLE    CLOUDY    45  45 100 CALM      29.97R
COLUMBIA       CLOUDY   N/A N/A N/A CALM      29.98S
SHELBYVILLE    CLOUDY    46  45  93 CALM      30.00S
$$

TNZ017-018-042-046-047-311200-
NORTHEAST TENNESSEE

CITY           SKY/WX    TMP DP  RH WIND       PRES   REMARKS
TRI CITIES     PTCLDY    33  32  96 CALM      29.97S FOG
ELIZABETHTON   MOSUNNY   32  32 100 CALM      29.96S
$$

TNZ012-013-036-069-073-074-311200-
CENTRAL EAST TENNESSEE

CITY           SKY/WX    TMP DP  RH WIND       PRES   REMARKS
KNOXVILLE      MOCLDY    39  38  96 CALM      29.98R
OAK RIDGE      MOCLDY    40  38  93 CALM      30.00R
GATLINBURG     SUNNY     34  34 100 CALM      29.97S
MORRISTOWN     PTSUNNY   37  37 100 CALM      29.97S
$$

TNZ083-085-099-311200-
SOUTHEAST TENNESSEE

CITY           SKY/WX    TMP DP  RH WIND       PRES   REMARKS
CHATTANOOGA    CLOUDY    48  43  82 NE7       29.97F
$$

SKY/WX REPORTED AS FAIR MEANS FEW OR NO CLOUDS BELOW
12 THOUSAND FEET.




USA.gov is the U.S. government's official web portal to all federal, state and local government web resources and services.